NOAA 16 DEB, 41307

Orbit data source: Space-Track

NOAA 16 DEB, 41307 is space debris in SSO originally from a launch on Thu, 21 Sep 2000 UTC launched from the Air Force Western Test Range (AFWTR). Debris objects in space refer to the collection of defunct objects orbiting the Earth. Examples of debris include non-operational satellites, rocket bodies, and fragments generated from explosions, collisions, or faulty payload assembly.

Loading next visibility...
Identifier
41307, 2000-055HK
Orbit
SSO
Country
Flag of USUS
Related business
Manufacturer
Unknown
Mission
Spacecraft
Bus & Motor
Unknown
Mass
Unknown
Launch date (UTC)
2000-09-21 (26 years ago)
Launch vehicle
Unknown
Launch site
Air Force Western Test Range (AFWTR)
Object type
Payload
Rocket body
Debris
Shape & HBR
Unknown shape, 0.1 m
Radar Cross Section
Medium (>0.1 m² and <1 m²)

Expand to show TLE details & history
Last TLE update: 1 week ago

TLE from 1 week ago
0 NOAA 16 DEB
1 41307U 00055HK  26246.07301604  .00717059  00000-0  97136-2 0  9993
2 41307  98.8693 105.3697 0004173 226.3718 133.7186 15.55566701557473
Epoch: 2026-09-03T01:45Z
TLE epoch observation values (Epoch: 2026-09-03T01:45:08.585Z)
Latitude
-0.00005°
Longitude
96.8675°
Altitude
405.554 km
Speed
7.666 km/s
True Right ascension
07h 01m 28s
True Declination
0° 00' 00"
Sunlit
Object was in daylight at epoch
Visualization orbit readout
Latitude
Unknown
Longitude
Unknown
Altitude
Unknown
Speed
Unknown
Apparent Right ascension
Unknown
Apparent Declination
Unknown
Sunlit
N/A
Visualization observer readout
Local Sidereal Time
09:51:43
Azimuth
Unknown
Elevation
Unknown
Doppler factor
Unknown
Orbital elements
Apogee altitude
400.322 km
Perigee altitude
394.667 km
Semi-major axis
6,775.631 km
Eccentricity
0.00042
Inclination
98.8693°
RAAN
105.3697°
Arg. of periapsis
226.3718°
True anomaly
133.75315°
Mean anomaly
133.7186°
Eccentric anomaly
133.73588°
Mean motion
3.89151 °/min
Orbital period
92.51 mins
BSTAR
0.0097136
Loading maneuver chart data...
Computing Atmospheric mass density...
Loading historical data...
Loading historical data...
Loading historical data...
Loading historical data...
Loading historical data...
Loading historical data...
Loading historical data...

Documentation

Showing up to 5 results
|